Regional Weather Roundup
Issued by NWS

Home | Current Version | Previous Version | Text Only | Print | Product List | Glossary On
Versions: 1 2 3 4 5 6 7 8 9 10 11 12 13 14 15 16 17 18 19 20 21 22 23 24 25 26 27 28 29 30 31 32 33 34 35 36 37 38 39 40 41 42 43 44 45 46 47 48 49 50
000
ASUS45 KBOI 031910
RWRID
WEATHER ROUNDUP FOR IDAHO
NATIONAL WEATHER SERVICE BOISE ID
1200 PM MST TUE MAR 03 2015

NOTE: "FAIR" INDICATES FEW OR NO CLOUDS BELOW 12000 FEET
WITH NO SIGNIFICANT WEATHER AND/OR OBSTRUCTIONS TO VISIBILITY

IDZ012-014-032000-
SOUTHWEST IDAHO


CITY           SKY/WX    TMP DP  RH WIND       PRES   REMARKS
BOISE          SUNNY     42  21  43 NW13      30.03S
CALDWELL       SUNNY     43  18  36 NW16G25   30.07F
MOUNTAIN HOME  SUNNY     42  17  37 NW26G36   29.99S
$$

IDZ016-017-032000-
SOUTHCENTRAL IDAHO


CITY           SKY/WX    TMP DP  RH WIND       PRES   REMARKS
BURLEY         CLOUDY    29  21  72 SW5       29.95R WCI  24
JEROME         MOSUNNY   31  21  66 NE12      29.96R WCI  22
TWIN FALLS     CLOUDY    36  17  46 W18G24    29.95R WCI  26
$$

IDZ019>023-032000-
SOUTHEAST IDAHO


CITY           SKY/WX    TMP DP  RH WIND       PRES   REMARKS
IDAHO FALLS    SUNNY     25   6  44 NE15      29.93S WCI  13
POCATELLO      SUNNY     26  11  52 NE12      29.95R WCI  16
REXBURG        SUNNY     23   2  40 N10       29.92S WCI  12
$$

IDZ006-010-011-018-031-032-032000-
CENTRAL IDAHO MOUNTAINS


CITY           SKY/WX    TMP DP  RH WIND       PRES   REMARKS
MCCALL         CLOUDY    30  11  45 NW12      29.95S WCI  20
HAILEY         PTSUNNY   30  21  69 SE14G21   29.91R WCI  20
STANLEY          N/A     27   3  35 N7        29.88R WCI  19
SALMON         MOSUNNY   27   1  33 NW3       30.01F
CHALLIS        SUNNY     29   7  39 N6        29.92F WCI  23
$$

IDZ002-004-006-007-026-032000-
NORTHERN IDAHO


CITY           SKY/WX    TMP DP  RH WIND       PRES   REMARKS
LEWISTON       SUNNY     35  21  56 NW5       30.20F WCI  31
LOWELL           N/A     37  21  52 S9        30.20F WCI  30
COEUR D`ALENE  SUNNY     30  10  43 CALM      30.15F
MULLAN PASS    MOSUNNY   11   6  81 CALM      29.95R
$$


USA.gov is the U.S. government's official web portal to all federal, state and local government web resources and services.